Weather History for South Bend, IN

Change the Weather History Date:

Saturday, July 6, 2013

  Actual Average Record
Temperature  
Mean Temperature 74 °F 73 °F  
Max Temperature 80 °F 83 °F 102 °F (2012)
Min Temperature 68 °F 63 °F 43 °F (2001)
Degree Days  
Heating Degree Days 0 0  
Month to date heating degree days 3 0  
Since 1 June heating degree days 40 44  
Since 1 July heating degree days 3 0  
Cooling Degree Days 9 8  
Month to date cooling degree days 24 48  
Year to date cooling degree days 285 269  
Since 1 June cooling degree days 189 213  
Growing Degree Days 24 (Base 50)    
Moisture  
Dew Point 67 °F    
Average Humidity 79    
Maximum Humidity 90    
Minimum Humidity 67    
Precipitation  
Precipitation 0.00 in 0.12 in 2.46 in (1943)
Month to date precipitation 0.70 0.72  
Year to date precipitation 21.43 18.23  
Snow  
Snow 0.00 in - - ()
Month to date snowfall 0.0  
Since 1 June snowfall 0.0  
Snow Depth 0.00 in    
Sea Level Pressure  
Sea Level Pressure 30.06 in    
Wind  
Wind Speed 5 mph (SSW)    
Max Wind Speed 15 mph    
Max Gust Speed 18 mph    
Visibility 10 miles    
Events      
T = Trace of Precipitation, MM = Missing Value Source: NWS Daily Summary

Daily Weather History Graph

Daily Weather History Graph

Search for Another Location

Airport:

Trip Planner

Search our weather history database for the weather conditions in past years. The results will help you decide how hot, cold, wet, or windy it might be!

Date:

Astronomy

Jul. 06, 2013 Rise Set
Actual Time 6:17 AM EDT 9:22 PM EDT
Civil Twilight 5:43 AM EDT 9:56 PM EDT
Nautical Twilight 5:00 AM EDT 10:39 PM EDT
Astronomical Twilight 4:09 AM EDT 11:29 PM EDT
Moon 5:03 AM EDT (7/6) 8:02 PM EDT (7/6)
Length of Visible Light 16h 12m
Length of Day
15h 04m
Waning Crescent, 2% of the Moon is Illuminated
Jul 6
Waning Crescent
Jul 8
New
Jul 15
First Quarter
Jul 22
Full
Jul 29
Last Quarter

Hourly Weather History & Observations

Time (EDT) Temp. Dew Point Humidity Pressure Visibility Wind Dir Wind Speed Gust Speed Precip Events Conditions
12:54 AM 72.0 °F 66.0 °F 81% 30.09 in 10.0 mi South 5.8 mph - N/A   Partly Cloudy
1:54 AM 72.0 °F 66.0 °F 81% 30.09 in 10.0 mi South 6.9 mph - N/A   Scattered Clouds
2:54 AM 72.0 °F 64.9 °F 78% 30.08 in 10.0 mi South 4.6 mph - N/A   Clear
3:54 AM 71.1 °F 64.9 °F 81% 30.07 in 10.0 mi South 3.5 mph - N/A   Clear
4:54 AM 70.0 °F 64.9 °F 84% 30.08 in 10.0 mi South 3.5 mph - N/A   Clear
5:54 AM 69.1 °F 64.9 °F 87% 30.08 in 10.0 mi Calm Calm - N/A   Clear
6:54 AM 69.1 °F 64.9 °F 87% 30.09 in 10.0 mi South 3.5 mph - N/A   Clear
7:54 AM 71.1 °F 66.0 °F 84% 30.09 in 10.0 mi Calm Calm - N/A   Clear
8:54 AM 73.9 °F 66.9 °F 79% 30.09 in 10.0 mi SSW 3.5 mph - N/A   Mostly Cloudy
9:54 AM 77.0 °F 68.0 °F 74% 30.09 in 10.0 mi South 3.5 mph - N/A   Scattered Clouds
10:27 AM 77.0 °F 68.0 °F 74% 30.10 in 10.0 mi WNW 4.6 mph - N/A   Mostly Cloudy
10:54 AM 78.1 °F 66.9 °F 68% 30.08 in 10.0 mi West 4.6 mph - N/A   Overcast
11:54 AM 79.0 °F 66.9 °F 66% 30.07 in 10.0 mi East 4.6 mph - N/A   Mostly Cloudy
12:54 PM 79.0 °F 66.9 °F 66% 30.07 in 10.0 mi SSE 9.2 mph - N/A   Overcast
1:54 PM 79.0 °F 66.9 °F 66% 30.05 in 10.0 mi SE 12.7 mph - N/A   Scattered Clouds
2:54 PM 77.0 °F 66.9 °F 71% 30.05 in 10.0 mi South 12.7 mph - N/A   Partly Cloudy
3:54 PM 77.0 °F 66.9 °F 71% 30.04 in 10.0 mi South 9.2 mph - N/A   Clear
4:54 PM 77.0 °F 66.0 °F 69% 30.04 in 10.0 mi SW 8.1 mph - N/A   Mostly Cloudy
5:54 PM 75.9 °F 66.0 °F 71% 30.03 in 10.0 mi WSW 5.8 mph - N/A   Mostly Cloudy
6:54 PM 75.9 °F 66.0 °F 71% 30.01 in 10.0 mi Calm Calm - N/A   Scattered Clouds
7:54 PM 75.9 °F 68.0 °F 76% 30.01 in 10.0 mi WSW 4.6 mph - N/A   Overcast
8:54 PM 73.9 °F 68.0 °F 82% 30.01 in 10.0 mi South 4.6 mph - N/A   Overcast
9:54 PM 73.0 °F 68.0 °F 84% 30.02 in 10.0 mi SW 3.5 mph - N/A   Scattered Clouds
10:54 PM 73.0 °F 68.0 °F 84% 30.04 in 8.0 mi SSW 3.5 mph - N/A   Scattered Clouds
11:38 PM 71.6 °F 68.0 °F 88% 30.06 in 9.0 mi SSW 4.6 mph - N/A   Mostly Cloudy
11:54 PM 72.0 °F 68.0 °F 87% 30.04 in 9.0 mi South 5.8 mph - N/A   Overcast